Fremont, NE

4:26 AM CDT on April 27, 2017 (GMT -0500)
Fremont Municipal

Weather History for KFET - September, 2013

Change the Weather History Date:

Sunday, September 22, 2013

  Actual Average Record
Temperature  
Mean Temperature 69 °F -  
Max Temperature 83 °F 73 °F 91 °F (1988)
Min Temperature 55 °F 48 °F 35 °F (2011)
Cooling Degree Days 4    
Growing Degree Days 19 (Base 50)    
Moisture  
Dew Point 52 °F    
Average Humidity 59    
Maximum Humidity 94    
Minimum Humidity 29    
Precipitation  
Precipitation 0.00 in - - ()
Sea Level Pressure  
Sea Level Pressure 29.84 in    
Wind  
Wind Speed 10 mph (SSE)    
Max Wind Speed 20 mph    
Max Gust Speed 28 mph    
Visibility 10 miles    
Events      
Averages and records for this station are not official NWS values.
T = Trace of Precipitation, MM = Missing Value Source: NWS Daily Summary

Daily Weather History Graph

Daily Weather History Graph

Search for Another Location

Airport or City:

Trip Planner

Search our weather history database for the weather conditions in past years. The results will help you decide how hot, cold, wet, or windy it might be!

Date:

Astronomy

Sep. 22, 2013 Rise Set
Actual Time 7:13 AM CDT 7:22 PM CDT
Civil Twilight 6:46 AM CDT 7:50 PM CDT
Nautical Twilight 6:13 AM CDT 8:22 PM CDT
Astronomical Twilight 5:40 AM CDT 8:55 PM CDT
Moon 9:10 PM CDT (9/22) 10:38 AM CDT (9/22)
Length of Visible Light 13h 04m
Length of Day
12h 08m
Waning Gibbous, 88% of the Moon is Illuminated
Sep 22
Waning Gibbous
Sep 26
Last Quarter
Oct 4
New
Oct 11
First Quarter
Oct 18
Full

Hourly Weather History & Observations

Time (CDT) Temp. Dew Point Humidity Pressure Visibility Wind Dir Wind Speed Gust Speed Precip Events Conditions
12:15 AM 63.5 °F 53.6 °F 70% 29.88 in 10.0 mi SSE 12.7 mph - N/A   Clear
12:35 AM 63.5 °F 53.8 °F 71% 29.87 in 10.0 mi SSE 12.7 mph - N/A   Clear
12:55 AM 63.1 °F 53.8 °F 71% 29.87 in 10.0 mi SSE 11.5 mph 17.3 mph N/A   Clear
1:15 AM 62.6 °F 54.0 °F 73% 29.87 in 10.0 mi SE 10.4 mph - N/A   Clear
1:35 AM 62.2 °F 54.1 °F 75% 29.87 in 10.0 mi SE 9.2 mph - N/A   Clear
1:55 AM 61.7 °F 54.1 °F 76% 29.87 in 10.0 mi SE 10.4 mph - N/A   Clear
2:15 AM 61.7 °F 54.5 °F 77% 29.87 in 10.0 mi SSE 9.2 mph - N/A   Clear
2:35 AM 61.2 °F 54.5 °F 79% 29.87 in 10.0 mi SE 6.9 mph - N/A   Clear
2:55 AM 60.8 °F 54.5 °F 80% 29.86 in 10.0 mi SE 5.8 mph - N/A   Clear
3:15 AM 59.9 °F 54.3 °F 82% 29.86 in 10.0 mi ESE 5.8 mph - N/A   Clear
3:35 AM 59.4 °F 54.5 °F 84% 29.86 in 10.0 mi ESE 5.8 mph - N/A   Clear
3:55 AM 59.2 °F 54.5 °F 84% 29.86 in 10.0 mi East 4.6 mph - N/A   Clear
4:15 AM 58.5 °F 54.3 °F 86% 29.86 in 10.0 mi ESE 3.5 mph - N/A   Clear
4:35 AM 58.1 °F 54.1 °F 87% 29.86 in 10.0 mi East 3.5 mph - N/A   Clear
4:55 AM 57.6 °F 54.1 °F 88% 29.86 in 10.0 mi East 3.5 mph - N/A   Clear
5:15 AM 57.2 °F 54.1 °F 89% 29.86 in 10.0 mi ESE 4.6 mph - N/A   Clear
5:35 AM 56.7 °F 54.0 °F 91% 29.87 in 10.0 mi ESE 4.6 mph - N/A   Clear
5:55 AM 56.3 °F 54.0 °F 92% 29.87 in 10.0 mi ESE 3.5 mph - N/A   Clear
6:15 AM 55.9 °F 54.0 °F 93% 29.87 in 10.0 mi ESE 4.6 mph - N/A   Clear
6:35 AM 55.6 °F 54.0 °F 94% 29.87 in 10.0 mi ESE 4.6 mph - N/A   Clear
6:55 AM 55.9 °F 54.0 °F 93% 29.87 in 10.0 mi SE 3.5 mph - N/A   Clear
7:15 AM 56.7 °F 54.3 °F 92% 29.88 in 10.0 mi Calm Calm - N/A   Clear
7:35 AM 56.5 °F 54.0 °F 91% 29.88 in 10.0 mi SE 3.5 mph - N/A   Clear
7:55 AM 57.4 °F 54.5 °F 90% 29.88 in 10.0 mi SE 4.6 mph - N/A   Clear
8:15 AM 59.9 °F 54.9 °F 83% 29.88 in 10.0 mi SSE 3.5 mph - N/A   Clear
8:35 AM 62.2 °F 54.9 °F 77% 29.89 in 10.0 mi South 6.9 mph - N/A   Clear
8:55 AM 63.5 °F 54.9 °F 73% 29.89 in 10.0 mi South 5.8 mph - N/A   Clear
9:15 AM 65.1 °F 55.0 °F 70% 29.89 in 10.0 mi South 9.2 mph - N/A   Clear
9:35 AM 67.3 °F 55.0 °F 65% 29.89 in 10.0 mi South 11.5 mph - N/A   Clear
9:55 AM 70.0 °F 55.2 °F 59% 29.89 in 10.0 mi South 9.2 mph - N/A   Clear
10:15 AM 72.0 °F 53.2 °F 52% 29.89 in 10.0 mi South 12.7 mph 19.6 mph N/A   Clear
10:35 AM 74.1 °F 53.6 °F 49% 29.89 in 10.0 mi South 15.0 mph 19.6 mph N/A   Clear
10:55 AM 75.9 °F 53.4 °F 45% 29.89 in 10.0 mi South 10.4 mph 19.6 mph N/A   Clear
11:15 AM 77.2 °F 51.8 °F 41% 29.88 in 10.0 mi South 15.0 mph 23.0 mph N/A   Clear
11:35 AM 78.6 °F 51.3 °F 38% 29.88 in 10.0 mi South 16.1 mph 23.0 mph N/A   Clear
11:55 AM 79.5 °F 51.1 °F 37% 29.87 in 10.0 mi South 12.7 mph 24.2 mph N/A   Clear
12:15 PM 79.7 °F 50.2 °F 36% 29.87 in 10.0 mi South 17.3 mph 25.3 mph N/A   Clear
12:35 PM 80.8 °F 51.3 °F 36% 29.86 in 10.0 mi South 15.0 mph 23.0 mph N/A   Clear
12:55 PM 81.3 °F 49.5 °F 33% 29.86 in 10.0 mi South 19.6 mph 25.3 mph N/A   Clear
1:15 PM 81.9 °F 50.2 °F 33% 29.85 in 10.0 mi South 13.8 mph - N/A   Clear
1:35 PM 81.9 °F 49.6 °F 32% 29.84 in 10.0 mi South 17.3 mph 26.5 mph N/A   Clear
1:55 PM 81.9 °F 50.4 °F 33% 29.84 in 10.0 mi South 16.1 mph 21.9 mph N/A   Clear
2:15 PM 82.9 °F 51.1 °F 33% 29.83 in 10.0 mi SSE 17.3 mph 27.6 mph N/A   Clear
2:35 PM 82.2 °F 49.6 °F 32% 29.82 in 10.0 mi South 18.4 mph 25.3 mph N/A   Clear
2:55 PM 82.8 °F 50.0 °F 32% 29.82 in 10.0 mi SSE 15.0 mph 24.2 mph N/A   Clear
3:15 PM 82.8 °F 49.6 °F 32% 29.81 in 10.0 mi South 17.3 mph 24.2 mph N/A   Clear
3:35 PM 82.6 °F 48.7 °F 31% 29.81 in 10.0 mi South 11.5 mph 25.3 mph N/A   Clear
3:55 PM 83.3 °F 48.7 °F 30% 29.81 in 10.0 mi South 16.1 mph 24.2 mph N/A   Clear
4:15 PM 82.6 °F 47.5 °F 29% 29.80 in 10.0 mi South 17.3 mph 24.2 mph N/A   Clear
4:35 PM 82.4 °F 47.5 °F 29% 29.79 in 10.0 mi SSE 18.4 mph 26.5 mph N/A   Clear
4:55 PM 82.2 °F 48.2 °F 30% 29.79 in 10.0 mi SSE 17.3 mph 25.3 mph N/A   Clear
5:15 PM 81.5 °F 48.2 °F 31% 29.79 in 10.0 mi SE 16.1 mph 23.0 mph N/A   Clear
5:35 PM 80.6 °F 49.3 °F 33% 29.79 in 10.0 mi SE 17.3 mph 25.3 mph N/A   Clear
5:55 PM 79.7 °F 49.5 °F 35% 29.79 in 10.0 mi SSE 10.4 mph 21.9 mph N/A   Clear
6:15 PM 78.8 °F 48.7 °F 35% 29.78 in 10.0 mi SSE 17.3 mph 25.3 mph N/A   Clear
6:35 PM 77.5 °F 49.1 °F 37% 29.79 in 10.0 mi SE 16.1 mph 21.9 mph N/A   Clear
6:55 PM 76.1 °F 49.5 °F 39% 29.79 in 10.0 mi SSE 11.5 mph 20.7 mph N/A   Clear
7:15 PM 74.3 °F 49.6 °F 42% 29.79 in 10.0 mi SE 11.5 mph - N/A   Clear
7:35 PM 72.5 °F 50.4 °F 46% 29.79 in 10.0 mi SE 11.5 mph 16.1 mph N/A   Clear
7:55 PM 71.6 °F 51.3 °F 49% 29.80 in 10.0 mi SE 10.4 mph 17.3 mph N/A   Clear
8:15 PM 71.1 °F 51.8 °F 50% 29.81 in 10.0 mi SE 12.7 mph 17.3 mph N/A   Clear
8:35 PM 70.0 °F 51.8 °F 52% 29.81 in 10.0 mi SE 10.4 mph - N/A   Clear
8:55 PM 69.3 °F 52.3 °F 55% 29.81 in 10.0 mi SE 12.7 mph 18.4 mph N/A   Clear
9:15 PM 68.5 °F 52.9 °F 57% 29.81 in 10.0 mi SE 11.5 mph - N/A   Clear
9:35 PM 68.0 °F 52.9 °F 58% 29.82 in 10.0 mi SE 11.5 mph 16.1 mph N/A   Clear
9:55 PM 67.6 °F 52.9 °F 59% 29.82 in 10.0 mi SE 11.5 mph 18.4 mph N/A   Clear
10:15 PM 67.3 °F 52.7 °F 59% 29.82 in 10.0 mi SE 9.2 mph 17.3 mph N/A   Clear
10:35 PM 66.7 °F 52.5 °F 60% 29.82 in 10.0 mi SE 12.7 mph 17.3 mph N/A   Clear
10:55 PM 65.8 °F 52.2 °F 61% 29.82 in 10.0 mi SE 12.7 mph - N/A   Clear
11:15 PM 65.5 °F 52.3 °F 62% 29.83 in 10.0 mi SE 11.5 mph 16.1 mph N/A   Clear
11:35 PM 65.3 °F 52.5 °F 63% 29.83 in 10.0 mi SE 9.2 mph - N/A   Clear
11:55 PM 64.4 °F 52.5 °F 65% 29.83 in 10.0 mi SE 12.7 mph 17.3 mph N/A   Clear